User: anonymous   Login
Location: Waning Moon II Observatory
(30.3730°N, 89.7620°W)
Time: 07:57:24
(UTC-05:00)
Language:

Meteor 1-21 - Orbit

View from above orbital plane
View from above orbital plane
View from above satellite
View from above satellite

Ground track
Ground track

The orbit data is extracted from the following two-line orbital elements,

1 07714U 75023A   15088.50156105  .00000268  00000-0  15026-3 0  9994
2 07714 081.2068 260.9788 0031210 025.0839 335.1838 14.07869189371117
Epoch (UTC): 29 March 2015 12:02:14
Eccentricity: 0.0031210
inclination: 81.2068°
perigee height: 844 km
apogee height: 889 km
right ascension of ascending node: 260.9788°
argument of perigee: 25.0839°
revolutions per day: 14.07869189
mean anomaly at epoch: 335.1838°
orbit number at epoch: 37111

The dashed part of the orbit path shows where the satellite is in the earth's shadow,  

DLR